Time,TemperatureF,DewpointF,PressureIn,WindDirection,WindDirectionDegrees,WindSpeedMPH,WindSpeedGustMPH,Humidity,HourlyPrecipIn,Conditions,Clouds,dailyrainin,SoftwareType,DateUTC
2013-03-02 00:02:00,32.0,32.0,29.53,North,355,8.0,14.0,98,0.00,,,0.03,,2013-03-02 05:02:00,
2013-03-02 00:12:00,32.0,32.0,29.53,North,355,8.0,14.0,98,0.00,,,0.03,,2013-03-02 05:12:00,
2013-03-02 00:22:00,33.0,33.0,29.53,North,355,6.0,12.0,99,0.00,,,0.03,,2013-03-02 05:22:00,
2013-03-02 00:32:00,32.0,32.0,29.52,North,355,8.0,15.0,99,0.00,,,0.03,,2013-03-02 05:32:00,
2013-03-02 00:42:00,32.0,32.0,29.52,North,355,8.0,15.0,99,0.00,,,0.03,,2013-03-02 05:42:00,
2013-03-02 00:52:00,33.0,33.0,29.52,North,355,12.0,16.0,99,0.00,,,0.03,,2013-03-02 05:52:00,
2013-03-02 01:01:00,33.0,33.0,29.52,North,355,9.0,14.0,99,0.00,,,0.02,,2013-03-02 06:01:00,
2013-03-02 01:11:00,33.0,33.0,29.52,North,355,9.0,14.0,99,0.00,,,0.02,,2013-03-02 06:11:00,
2013-03-02 01:21:00,33.0,33.0,29.52,North,355,6.0,14.0,99,0.00,,,0.02,,2013-03-02 06:21:00,
2013-03-02 01:32:00,33.0,33.0,29.52,North,355,9.0,14.0,99,0.00,,,0.02,,2013-03-02 06:32:00,
2013-03-02 01:42:00,33.0,33.0,29.52,North,355,9.0,14.0,99,0.00,,,0.02,,2013-03-02 06:42:00,
2013-03-02 01:52:00,33.0,32.0,29.52,NNW,344,8.0,15.0,98,0.00,,,0.02,,2013-03-02 06:52:00,
2013-03-02 02:01:00,33.0,32.0,29.51,NNW,338,9.0,16.0,98,0.00,,,0.01,,2013-03-02 07:01:00,
2013-03-02 02:11:00,33.0,32.0,29.51,NNW,338,10.0,14.0,98,0.00,,,0.01,,2013-03-02 07:11:00,
2013-03-02 02:21:00,33.0,32.0,29.51,NNW,338,10.0,14.0,98,0.00,,,0.01,,2013-03-02 07:21:00,
2013-03-02 02:32:00,33.0,33.0,29.51,NNW,338,9.0,14.0,99,0.00,,,0.01,,2013-03-02 07:32:00,
2013-03-02 02:42:00,33.0,33.0,29.51,NNW,338,9.0,14.0,99,0.00,,,0.01,,2013-03-02 07:42:00,
2013-03-02 02:52:00,33.0,33.0,29.51,NNW,337,10.0,15.0,99,0.00,,,0.01,,2013-03-02 07:52:00,
2013-03-02 03:01:00,33.0,32.0,29.51,NNW,338,8.0,14.0,98,0.00,,,0.01,,2013-03-02 08:01:00,
2013-03-02 03:11:00,33.0,32.0,29.51,NNW,338,8.0,14.0,98,0.00,,,0.01,,2013-03-02 08:11:00,
2013-03-02 03:22:00,33.0,32.0,29.51,NNW,338,9.0,16.0,98,0.00,,,0.01,,2013-03-02 08:22:00,
2013-03-02 03:32:00,33.0,32.0,29.51,NNW,338,9.0,18.0,98,0.00,,,0.01,,2013-03-02 08:32:00,
2013-03-02 03:42:00,33.0,32.0,29.51,NNW,338,9.0,18.0,98,0.00,,,0.01,,2013-03-02 08:42:00,
2013-03-02 03:52:00,33.0,32.0,29.51,NNW,338,12.0,17.0,98,0.00,,,0.01,,2013-03-02 08:52:00,
2013-03-02 04:02:00,32.0,32.0,29.51,NNW,337,10.0,17.0,98,0.00,,,0.01,,2013-03-02 09:02:00,
2013-03-02 04:11:00,32.0,32.0,29.51,NNW,338,7.0,16.0,98,0.00,,,0.01,,2013-03-02 09:11:00,
2013-03-02 04:22:00,32.0,32.0,29.51,NNW,338,7.0,16.0,98,0.00,,,0.01,,2013-03-02 09:22:00,
2013-03-02 04:32:00,32.0,32.0,29.51,NNW,338,9.0,15.0,98,0.00,,,0.01,,2013-03-02 09:32:00,
2013-03-02 04:42:00,32.0,32.0,29.51,NNW,338,9.0,15.0,98,0.00,,,0.01,,2013-03-02 09:42:00,
2013-03-02 04:52:00,32.0,32.0,29.51,NNW,338,8.0,14.0,98,0.00,,,0.01,,2013-03-02 09:52:00,
2013-03-02 05:01:00,31.0,31.0,29.51,NNW,338,6.0,15.0,98,0.00,,,0.01,,2013-03-02 10:01:00,
2013-03-02 05:16:00,31.0,31.0,29.51,NNW,338,6.0,15.0,98,0.00,,,0.01,,2013-03-02 10:16:00,
2013-03-02 05:22:00,31.0,31.0,29.51,NNW,338,10.0,16.0,98,0.00,,,0.01,,2013-03-02 10:22:00,
2013-03-02 05:52:00,31.0,31.0,29.51,NNW,337,8.0,14.0,100,0.00,,,0.01,,2013-03-02 10:52:00,
2013-03-02 06:32:00,-39.0,-99.9,29.51,NNW,338,9.0,17.0,-999,0.00,,,0.01,,2013-03-02 11:32:00,
2013-03-02 06:42:00,-39.0,-99.9,29.51,NNW,338,9.0,17.0,-999,0.00,,,0.01,,2013-03-02 11:42:00,
2013-03-02 07:02:00,-39.0,-40.0,29.52,NNW,338,13.0,20.0,97,0.00,,,0.01,,2013-03-02 12:02:00,
2013-03-02 07:11:00,-39.0,-40.0,29.52,NNW,338,13.0,20.0,97,0.00,,,0.01,,2013-03-02 12:11:00,
2013-03-02 07:22:00,-39.0,-99.9,29.52,NNW,338,11.0,17.0,-999,0.00,,,0.01,,2013-03-02 12:22:00,
2013-03-02 07:33:00,-39.0,-99.9,29.52,NNW,338,11.0,20.0,-999,0.00,,,0.01,,2013-03-02 12:33:00,
2013-03-02 07:43:00,-39.0,-99.9,29.52,NNW,338,11.0,20.0,-999,0.00,,,0.01,,2013-03-02 12:43:00,
2013-03-02 07:53:00,-39.0,-99.9,29.52,NNW,338,10.0,18.0,-999,0.00,,,0.01,,2013-03-02 12:53:00,
2013-03-02 08:02:00,-39.0,-99.9,29.52,NNW,337,11.0,20.0,-999,0.00,,,0.01,,2013-03-02 13:02:00,
2013-03-02 08:11:00,-39.0,-99.9,29.52,NNW,337,11.0,20.0,-999,0.00,,,0.01,,2013-03-02 13:11:00,
2013-03-02 08:22:00,-39.0,-40.0,29.52,NNW,336,11.0,18.0,97,0.00,,,0.01,,2013-03-02 13:22:00,
2013-03-02 08:32:00,-39.0,-40.0,29.52,NNW,331,13.0,21.0,97,0.00,,,0.01,,2013-03-02 13:32:00,
2013-03-02 08:42:00,-39.0,-40.0,29.52,NNW,331,13.0,21.0,97,0.00,,,0.01,,2013-03-02 13:42:00,
2013-03-02 08:53:00,-39.0,-99.9,29.52,NW,323,10.0,18.0,-999,0.00,,,0.01,,2013-03-02 13:53:00,
2013-03-02 09:01:00,-39.0,-99.9,29.52,NW,321,15.0,19.0,-999,0.00,,,0.01,,2013-03-02 14:01:00,
2013-03-02 09:11:00,-39.0,-99.9,29.52,NW,321,15.0,19.0,-999,0.00,,,0.01,,2013-03-02 14:11:00,
2013-03-02 09:22:00,-39.0,-99.9,29.51,NW,325,14.0,19.0,-999,0.00,,,0.01,,2013-03-02 14:22:00,
2013-03-02 09:32:00,-39.0,-39.0,29.52,NW,326,10.0,18.0,100,0.00,,,0.01,,2013-03-02 14:32:00,
2013-03-02 09:42:00,-39.0,-39.0,29.52,NW,326,10.0,18.0,100,0.00,,,0.01,,2013-03-02 14:42:00,
2013-03-02 09:52:00,-39.0,-99.9,29.51,NNW,340,10.0,16.0,-999,0.00,,,0.01,,2013-03-02 14:52:00,
2013-03-02 10:02:00,-39.0,-99.9,29.51,NNW,333,12.0,21.0,-999,0.00,,,0.01,,2013-03-02 15:02:00,
2013-03-02 10:11:00,-39.0,-99.9,29.51,NNW,333,12.0,21.0,-999,0.00,,,0.01,,2013-03-02 15:11:00,
2013-03-02 10:22:00,-39.0,-39.0,29.51,NW,309,11.0,22.0,100,0.01,,,0.02,,2013-03-02 15:22:00,
2013-03-02 10:32:00,-39.0,-99.9,29.51,NW,317,12.0,16.0,-999,0.01,,,0.02,,2013-03-02 15:32:00,
2013-03-02 10:42:00,-39.0,-99.9,29.51,NW,317,12.0,16.0,-999,0.01,,,0.02,,2013-03-02 15:42:00,
2013-03-02 10:52:00,-38.0,-99.9,29.51,NW,321,11.0,18.0,-999,0.01,,,0.02,,2013-03-02 15:52:00,
2013-03-02 11:02:00,-38.0,-38.0,29.51,NW,326,10.0,17.0,100,0.01,,,0.02,,2013-03-02 16:02:00,
2013-03-02 11:11:00,-38.0,-38.0,29.51,NW,326,10.0,17.0,100,0.01,,,0.02,,2013-03-02 16:11:00,
2013-03-02 11:22:00,-38.0,-99.9,29.51,NW,319,11.0,16.0,-999,0.00,,,0.02,,2013-03-02 16:22:00,
2013-03-02 11:32:00,-38.0,-99.9,29.51,NW,315,9.0,18.0,-999,0.00,,,0.02,,2013-03-02 16:32:00,
2013-03-02 11:42:00,-38.0,-99.9,29.51,NW,315,9.0,18.0,-999,0.00,,,0.02,,2013-03-02 16:42:00,
2013-03-02 11:52:00,-38.0,-99.9,29.51,NW,309,11.0,20.0,-999,0.00,,,0.02,,2013-03-02 16:52:00,
2013-03-02 12:01:00,-38.0,-38.0,29.51,NW,321,11.0,19.0,100,0.00,,,0.02,,2013-03-02 17:01:00,
2013-03-02 12:11:00,-38.0,-38.0,29.51,NW,321,11.0,19.0,100,0.00,,,0.02,,2013-03-02 17:11:00,
2013-03-02 12:22:00,-38.0,-99.9,29.50,NW,308,10.0,17.0,-999,0.00,,,0.02,,2013-03-02 17:22:00,
2013-03-02 12:32:00,-38.0,-99.9,29.50,WNW,288,13.0,19.0,-999,0.00,,,0.02,,2013-03-02 17:32:00,
2013-03-02 12:42:00,-38.0,-99.9,29.50,WNW,288,13.0,19.0,-999,0.00,,,0.02,,2013-03-02 17:42:00,
2013-03-02 13:02:00,-37.0,-99.9,29.50,NW,321,10.0,16.0,-999,0.00,,,0.02,,2013-03-02 18:02:00,
2013-03-02 13:12:00,-37.0,-99.9,29.50,NW,321,10.0,16.0,-999,0.00,,,0.02,,2013-03-02 18:12:00,
2013-03-02 13:22:00,-37.0,-38.0,29.50,NNW,328,10.0,16.0,97,0.00,,,0.02,,2013-03-02 18:22:00,
2013-03-02 13:32:00,-37.0,-99.9,29.50,WNW,296,10.0,17.0,-999,0.00,,,0.02,,2013-03-02 18:32:00,
2013-03-02 13:42:00,-37.0,-99.9,29.50,WNW,296,10.0,17.0,-999,0.00,,,0.02,,2013-03-02 18:42:00,
2013-03-02 13:52:00,-37.0,-99.9,29.49,NW,315,9.0,16.0,-999,0.00,,,0.02,,2013-03-02 18:52:00,
2013-03-02 14:02:00,-37.0,-99.9,29.49,NNW,327,9.0,16.0,-999,0.00,,,0.02,,2013-03-02 19:02:00,
2013-03-02 14:12:00,-37.0,-99.9,29.49,NNW,327,9.0,16.0,-999,0.00,,,0.02,,2013-03-02 19:12:00,
2013-03-02 14:22:00,-37.0,-99.9,29.49,NW,309,12.0,16.0,-999,0.00,,,0.02,,2013-03-02 19:22:00,
2013-03-02 14:32:00,-37.0,-99.9,29.49,NNW,332,9.0,17.0,-999,0.00,,,0.02,,2013-03-02 19:32:00,
2013-03-02 14:43:00,-37.0,-99.9,29.49,NNW,332,9.0,17.0,-999,0.00,,,0.02,,2013-03-02 19:43:00,
2013-03-02 14:52:00,-37.0,-38.0,29.49,NW,321,10.0,17.0,94,0.00,,,0.02,,2013-03-02 19:52:00,
2013-03-02 15:02:00,-37.0,-99.9,29.50,NW,318,6.0,20.0,-999,0.00,,,0.02,,2013-03-02 20:02:00,
2013-03-02 15:11:00,-37.0,-99.9,29.50,NW,318,6.0,20.0,-999,0.00,,,0.02,,2013-03-02 20:11:00,
2013-03-02 15:22:00,-37.0,-99.9,29.49,NW,315,9.0,15.0,-999,0.00,,,0.02,,2013-03-02 20:22:00,
2013-03-02 15:32:00,-37.0,-38.0,29.50,NW,315,6.0,14.0,97,0.00,,,0.02,,2013-03-02 20:32:00,
2013-03-02 15:42:00,-37.0,-38.0,29.50,NW,315,6.0,14.0,97,0.00,,,0.02,,2013-03-02 20:42:00,
2013-03-02 15:53:00,-37.0,-37.0,29.50,NW,323,7.0,15.0,100,0.00,,,0.02,,2013-03-02 20:53:00,
2013-03-02 16:02:00,-37.0,-38.0,29.50,NNW,329,7.0,16.0,96,0.00,,,0.01,,2013-03-02 21:02:00,
2013-03-02 16:11:00,-37.0,-38.0,29.50,NNW,329,7.0,16.0,96,0.00,,,0.01,,2013-03-02 21:11:00,
2013-03-02 16:22:00,-37.0,-38.0,29.51,NNW,333,6.0,15.0,97,0.00,,,0.01,,2013-03-02 21:22:00,
2013-03-02 17:32:00,35.0,34.0,29.52,NW,326,6.0,14.0,97,0.01,,,0.02,,2013-03-02 22:32:00,
2013-03-02 17:42:00,35.0,34.0,29.52,NW,326,6.0,14.0,97,0.01,,,0.02,,2013-03-02 22:42:00,
2013-03-02 17:52:00,-37.0,-37.0,29.51,NNW,336,10.0,15.0,98,0.01,,,0.02,,2013-03-02 22:52:00,
2013-03-02 18:01:00,-38.0,-39.0,29.51,NNW,344,10.0,16.0,97,0.01,,,0.02,,2013-03-02 23:01:00,
2013-03-02 18:12:00,-37.0,-99.9,29.52,WNW,300,8.0,14.0,-999,0.02,,,0.03,,2013-03-02 23:12:00,
2013-03-02 18:22:00,-37.0,-99.9,29.52,WNW,300,8.0,14.0,-999,0.02,,,0.03,,2013-03-02 23:22:00,
2013-03-02 18:32:00,35.0,34.0,29.54,NNW,346,10.0,16.0,98,0.01,,,0.03,,2013-03-02 23:32:00,
2013-03-02 18:42:00,35.0,34.0,29.54,NNW,346,10.0,16.0,98,0.01,,,0.03,,2013-03-02 23:42:00,
2013-03-02 18:52:00,-38.0,-99.9,29.52,NNW,342,9.0,14.0,-999,0.01,,,0.03,,2013-03-02 23:52:00,
2013-03-02 19:02:00,-38.0,-99.9,29.54,NW,317,10.0,14.0,-999,0.01,,,0.03,,2013-03-03 00:02:00,
2013-03-02 19:11:00,-38.0,-99.9,29.54,NW,317,10.0,14.0,-999,0.01,,,0.03,,2013-03-03 00:11:00,
2013-03-02 19:23:00,-38.0,-99.9,29.54,NNW,343,9.0,15.0,-999,0.00,,,0.03,,2013-03-03 00:23:00,
2013-03-02 19:53:00,-38.0,-99.9,29.54,NNW,345,7.0,12.0,-999,0.00,,,0.03,,2013-03-03 00:53:00,
2013-03-02 20:32:00,35.0,34.0,29.54,NNW,331,8.0,11.0,98,0.00,,,0.03,,2013-03-03 01:32:00,
2013-03-02 20:42:00,35.0,34.0,29.54,NNW,331,8.0,11.0,98,0.00,,,0.03,,2013-03-03 01:42:00,
2013-03-02 21:01:00,35.0,34.0,29.54,NNW,329,5.0,10.0,98,0.00,,,0.03,,2013-03-03 02:01:00,
2013-03-02 21:11:00,35.0,34.0,29.54,NNW,329,5.0,10.0,98,0.00,,,0.03,,2013-03-03 02:11:00,
2013-03-02 21:21:00,35.0,34.0,29.53,NNW,344,6.0,11.0,98,0.00,,,0.03,,2013-03-03 02:21:00,
2013-03-02 21:32:00,35.0,34.0,29.53,NNW,342,5.0,11.0,98,0.00,,,0.03,,2013-03-03 02:32:00,
2013-03-02 21:42:00,35.0,34.0,29.53,NNW,342,5.0,11.0,98,0.00,,,0.03,,2013-03-03 02:42:00,
2013-03-02 21:52:00,35.0,34.0,29.53,NNW,335,6.0,10.0,98,0.00,,,0.03,,2013-03-03 02:52:00,
2013-03-02 22:21:00,35.0,34.0,29.52,NNW,340,4.0,9.0,98,0.00,,,0.03,,2013-03-03 03:21:00,
2013-03-02 22:32:00,35.0,34.0,29.52,NNW,340,4.0,6.0,98,0.00,,,0.03,,2013-03-03 03:32:00,
2013-03-02 22:42:00,35.0,34.0,29.52,NNW,340,4.0,6.0,98,0.00,,,0.03,,2013-03-03 03:42:00,
2013-03-02 22:52:00,35.0,34.0,29.52,NNW,340,3.0,5.0,98,0.00,,,0.03,,2013-03-03 03:52:00,
2013-03-02 23:01:00,35.0,34.0,29.52,NNW,340,4.0,6.0,98,0.00,,,0.03,,2013-03-03 04:01:00,
2013-03-02 23:11:00,35.0,34.0,29.52,NNW,340,4.0,6.0,98,0.00,,,0.03,,2013-03-03 04:11:00,
2013-03-02 23:21:00,35.0,34.0,29.53,NNW,340,3.0,7.0,98,0.00,,,0.03,,2013-03-03 04:21:00,
2013-03-02 23:32:00,35.0,34.0,29.52,NNW,340,4.0,5.0,98,0.00,,,0.03,,2013-03-03 04:32:00,
2013-03-02 23:42:00,35.0,34.0,29.52,NNW,340,4.0,5.0,98,0.00,,,0.03,,2013-03-03 04:42:00,
2013-03-02 23:52:00,35.0,34.0,29.52,NNW,340,5.0,7.0,98,0.00,,,0.03,,2013-03-03 04:52:00,